Cosmos 1346 Rocket - Orbit

View from above orbital plane
View from above orbital plane
View from above satellite
View from above satellite

Ground track
Ground track

The orbit data is extracted from the following two-line orbital elements,

1 13121U 82027B   13140.80205827  .00002690  00000-0  19499-3 0  1206
2 13121 081.1703 023.7222 0030331 035.1800 325.1416 15.03271752692917
Epoch (UTC): 20 May 2013 19:14:57
Eccentricity: 0.0030331
inclination: 81.1703°
perigee height: 536 km
apogee height: 578 km
right ascension of ascending node: 23.7222°
argument of perigee: 35.1800°
revolutions per day: 15.03271752
mean anomaly at epoch: 325.1416°
orbit number at epoch: 69291

The dashed part of the orbit path shows where the satellite is in the earth's shadow,  

Developed and maintained by Chris Peat, Heavens-Above GmbH. Please read the updated FAQ before sending e-mail. Imprint. DLR